Weather History for Solander Island, BC

Change the Weather History Date:

Wednesday, December 12, 2012

  Actual Average Record
Temperature  
Mean Temperature 42 °F -  
Max Temperature 43 °F - - ()
Min Temperature 40 °F - - ()
Degree Days  
Heating Degree Days 24    
Moisture  
Dew Point 37 °F    
Average Humidity 79    
Maximum Humidity 89    
Minimum Humidity 65    
Precipitation  
Precipitation 0.00 in - - ()
Sea Level Pressure  
Sea Level Pressure 29.86 in    
Wind  
Wind Speed 19 mph ()    
Max Wind Speed 30 mph    
Max Gust Speed 33 mph    
T = Trace of Precipitation, MM = Missing Value Source: Averaged Metar Reports

Daily Weather History Graph

Daily Weather History Graph

Search for Another Location

Airport:

Trip Planner

Search our weather history database for the weather conditions in past years. The results will help you decide how hot, cold, wet, or windy it might be!

Date:

Astronomy

Dec. 12, 2012 Rise Set
Actual Time 8:22 AM PST 4:29 PM PST
Civil Twilight 7:43 AM PST 5:07 PM PST
Nautical Twilight 7:02 AM PST 5:49 PM PST
Astronomical Twilight 6:22 AM PST 6:28 PM PST
Moon 7:31 AM PST (12/12) 4:14 PM PST (12/12)
Length of Visible Light 9h 23m
Length of Day
8h 07m
Waning Crescent, 0% of the Moon is Illuminated
Dec 12
Waning Crescent
Dec 13
New
Dec 19
First Quarter
Dec 28
Full
Jan 4
Last Quarter

Hourly Weather History & Observations

Time (PST) Temp. Windchill Dew Point Humidity Pressure Visibility Wind Dir Wind Speed Gust Speed Precip Events Conditions
12:00 AM 43.0 °F 34.5 °F 38.1 °F 83% 29.69 in - North 19.6 mph - N/A   Unknown
1:00 AM 43.3 °F 34.5 °F 38.3 °F 82% 29.70 in - North 21.9 mph - N/A   Unknown
2:00 AM 43.5 °F 35.0 °F 38.7 °F 83% 29.71 in - North 20.7 mph - N/A   Unknown
3:00 AM 43.3 °F 34.2 °F 39.6 °F 87% 29.73 in - NNW 23.0 mph - N/A   Unknown
4:00 AM 43 °F - 39 °F 81% 29.74 in - NNW 25.3 mph - -  
4:00 AM 43.3 °F 33.8 °F 39.0 °F 85% 29.74 in - NNW 25.3 mph - N/A   Unknown
5:00 AM 43.0 °F 33.5 °F 39.9 °F 89% 29.75 in - NNW 24.2 mph 29.9 mph N/A   Unknown
6:00 AM 43.2 °F 34.2 °F 39.7 °F 88% 29.76 in - NNW 21.9 mph - N/A   Unknown
7:00 AM 43.5 °F 33.6 °F 37.8 °F 80% 29.79 in - NNW 27.6 mph 33.4 mph N/A   Unknown
8:00 AM 43.3 °F 33.8 °F 37.4 °F 80% 29.81 in - NNW 25.3 mph 32.2 mph N/A   Unknown
9:00 AM 43.2 °F 33.4 °F 37.4 °F 80% 29.83 in - NNW 26.5 mph - N/A   Unknown
10:00 AM 43 °F - 37 °F 72% 29.86 in - North 29.9 mph - -  
10:00 AM 43.0 °F 32.5 °F 37.0 °F 80% 29.86 in - North 29.9 mph - N/A   Unknown
11:00 AM 43.3 °F 34.7 °F 37.8 °F 81% 29.88 in - NNW 20.7 mph 28.8 mph N/A   Unknown
12:00 PM 43.3 °F 34.2 °F 37.2 °F 79% 29.88 in - NNW 23.0 mph 29.9 mph N/A   Unknown
1:00 PM 43.3 °F 34.2 °F 36.9 °F 78% 29.89 in - NNW 23.0 mph - N/A   Unknown
2:00 PM 43.2 °F 34.5 °F 37.0 °F 79% 29.93 in - NNW 20.7 mph - N/A   Unknown
3:00 PM 43.0 °F 33.3 °F 36.7 °F 78% 29.94 in - North 25.3 mph - N/A   Unknown
4:00 PM 43 °F - 35 °F 65% 29.94 in - North 27.6 mph - -  
4:00 PM 42.8 °F 32.7 °F 35.2 °F 75% 29.94 in - North 27.6 mph - N/A   Unknown
5:00 PM 43.0 °F 33.8 °F 36.0 °F 76% 29.94 in - North 23.0 mph - N/A   Unknown
6:00 PM 42.4 °F 34.7 °F 36.1 °F 78% 29.95 in - NNE 16.1 mph - N/A   Unknown
7:00 PM 42.3 °F 36.8 °F 35.2 °F 76% 29.96 in - NNE 9.2 mph - N/A   Unknown
8:00 PM 42.4 °F 36.5 °F 35.4 °F 76% 29.97 in - North 10.4 mph - N/A   Unknown
9:00 PM 42.8 °F 40.1 °F 34.3 °F 72% 29.98 in - NE 4.6 mph - N/A   Unknown
10:00 PM 43 °F - 37 °F 71% 29.98 in - SE 3.5 mph - -  
10:00 PM 43.2 °F 41.5 °F 36.7 °F 78% 29.98 in - SE 3.5 mph - N/A   Unknown
11:00 PM 41.7 °F 35.2 °F 35.1 °F 77% 29.98 in - ESE 11.5 mph - N/A   Unknown